AMC-8 (GE-8)

导读 | 星芒AI

AMC-8(也称为GE-8)是一颗由波音卫星系统制造的通信卫星,于2000年发射,由美洲通信公司(AMC)运营。该卫星位于东经24.5度的轨道位置,主要用于提供跨大西洋的电视广播和数据传输服务。AMC-8支持多家欧洲和北美地区的有线电视网络,广泛用于新闻、体育和娱乐节目的传输。其高功率和多波束设计使其能够高效覆盖广泛的地理区域,是国际通信基础设施的重要组成部分。

基本信息
目录编号:
26639
目录名称:
AMC-8 (GE-8)
国际标识:
2000-081B
轨道中心:
EARTH
卫星名称:
AMC-8 (GE-8)
卫星全名:
--
卫星状态:
在轨 (已飞行9079 天)
发射日期:
2000-12-20 UTC
国别 :
(SES)
星等 :
--
轨道信息
数据来源 国际轨道数据 AOE轨道数据
星历时间 2025-10-28T19:53:38+0800
19小时前
查看轨道信息
2025-10-28T17:00:00+0800
22小时前
查看轨道信息
半长轴 42482.742km 42482.371km
偏心率 0.000698 0.0007126
轨道倾角 5.525° 5.524°
近地点辐角 200.988° 200.912°
升交点赤经 75.374° 75.374°
平近点角 178.798° 135.838°
近地点 36074.954km 36073.963km
远地点 36134.26km 36134.509km
周期 1452.374分钟 1452.355分钟
每日圈数 0.99148 0.991493
详细信息
使用方式:
暂无
2D轨道图
3D轨道图
轨道高度分析图
轨道倾角分析图
轨道综合分析图
查看轨道综合分析图